sat.trackr.live / text

‹ back to catalog

UNKNOWN

NORAD 81078

UNKNOWN UNKNOWN UNKNOWN

§ Identity

Operator
Country
Launch date
Launch site
Launch vehicle
Mass (kg)
RCS (m²)

External: N2YO · Heavens-Above

§ Orbital elements

Epoch: 2026-05-22T14:51:29.848608Z

Period
128.29 min
Inclination
65.1136°
Eccentricity
0.0195010
Mean motion
11.22457650 rev/d
Perigee alt
1,883.6 km
Apogee alt
2,212.2 km
Semi-major
8,426.0 km
B*
-2.5790e-2
RAAN
4.4762°
Arg perigee
330.2528°
Mean anomaly
56.9311°
Rev number
51,268

§ Raw data

UNKNOWN1 81078U          26142.61909547 -.00000910  00000+0 -25790-1 0  99952 81078  65.1136   4.4762 0195010 330.2528  56.9311 11.22457650512680

JSON: /api/v1/satellites/81078 · /tle

For live sub-satellite position, see the globe view (requires WebGL).

§ Visibility from observer

Set your observer location to see the next 7 days of passes ≥ 10°. The values pass through the URL so the page stays shareable.

No JS? Fill the form by hand. The geolocation button needs JavaScript.